DW7214 Weather Reports


Display with metric or nautical units.
time (UTC)temp
F
wind
direction
speed
MPH
gust
MPH
rain 1hr
in
rain 24hr
in
rain mn
in
humidity
%
barometer
mb
20260507141525 52 298 1.0 2.0 0.00 0.00 0.00 77 1021.7
20260507140030 52 309 1.0 2.0 0.00 0.00 0.00 78 1021.6
20260507134520 52 327 0.0 2.0 0.00 0.00 0.00 78 1021.5
20260507133023 52 328 0.0 2.0 0.00 0.00 0.00 78 1021.2
20260507131535 52 331 0.0 2.0 0.00 0.00 0.00 77 1021.3
20260507130025 52 304 1.0 2.0 0.00 0.00 0.00 77 1021.3
20260507124521 53 301 0.0 2.0 0.00 0.00 0.00 78 1021.3
20260507123024 53 277 0.0 2.0 0.00 0.00 0.00 79 1021.4
20260507121526 53 281 0.0 2.0 0.00 0.00 0.00 79 1021.4
20260507120023 53 286 0.0 2.0 0.00 0.00 0.00 79 1021.6
20260507114515 53 279 0.0 2.0 0.00 0.00 0.00 78 1021.7
20260507113024 53 278 0.0 2.0 0.00 0.00 0.00 79 1021.7
20260507111507 53 284 0.0 2.0 0.00 0.00 0.00 79 1021.8
20260507110008 53 286 0.0 2.0 0.00 0.00 0.00 79 1021.9
20260507104516 53 294 0.0 2.0 0.00 0.00 0.00 79 1021.9
20260507103019 53 286 0.0 2.0 0.00 0.00 0.00 79 1022.0
20260507101524 54 315 0.0 2.0 0.00 0.00 0.00 79 1022.0
20260507100008 54 289 0.0 2.0 0.00 0.00 0.00 78 1022.1
20260507094512 54 279 1.0 2.0 0.00 0.00 0.00 78 1022.2
20260507093018 54 281 0.0 2.0 0.00 0.00 0.00 79 1022.2
20260507091524 54 286 0.0 2.0 0.00 0.00 0.00 78 1022.4
20260507090026 54 281 1.0 2.0 0.00 0.00 0.00 79 1022.5
20260507084513 54 331 1.0 2.0 0.00 0.00 0.00 78 1022.5
20260507083016 54 337 1.0 2.0 0.00 0.00 0.00 78 1022.5
20260507081534 54 275 0.0 3.0 0.00 0.00 0.00 78 1022.4
20260507080022 55 349 2.0 6.0 0.00 0.00 0.00 78 1022.4
20260507074544 55 360 2.0 5.0 0.00 0.00 0.00 77 1022.4
20260507073014 55 5 2.0 5.0 0.00 0.00 0.00 78 1022.3
20260507071520 55 350 2.0 4.0 0.00 0.00 0.00 79 1022.3
20260507070024 54 18 0.0 2.0 0.00 0.00 0.00 82 1022.3
20260507064524 54 109 0.0 2.0 0.00 0.00 0.00 84 1022.2
20260507063019 54 61 0.0 2.0 0.00 0.00 0.00 84 1022.2
20260507061518 54 104 1.0 2.0 0.00 0.00 0.00 83 1022.2
20260507060020 54 120 0.0 3.0 0.00 0.00 0.00 83 1022.2
20260507054526 54 105 0.0 2.0 0.00 0.00 0.00 82 1022.1
20260507053027 55 121 1.0 4.0 0.00 0.00 0.00 81 1022.0
20260507051512 55 317 0.0 2.0 0.00 0.00 0.00 83 1022.0
20260507050025 55 290 0.0 2.0 0.00 0.00 0.00 83 1022.0
20260507044523 54 290 0.0 1.0 0.00 0.00 0.00 82 1022.0
20260507043024 54 294 0.0 2.0 0.00 0.00 0.00 81 1021.8
20260507041526 55 138 0.0 2.0 0.00 0.00 0.00 80 1021.8
20260507040016 55 44 0.0 2.0 0.00 0.00 0.00 79 1021.5
20260507034520 56 26 1.0 2.0 0.00 0.00 0.00 78 1021.2
20260507033025 58 67 0.0 2.0 0.00 0.00 0.00 75 1021.0
20260507031527 59 110 0.0 2.0 0.00 0.00 0.00 73 1020.9
20260507030026 60 109 1.0 3.0 0.00 0.00 0.00 71 1020.9
20260507024516 62 134 0.0 4.0 0.00 0.00 0.00 69 1020.7
20260507023022 63 42 1.0 2.0 0.00 0.00 0.00 69 1020.6
20260507021524 64 106 1.0 7.0 0.00 0.00 0.00 66 1020.7
20260507020026 65 77 3.0 7.0 0.00 0.00 0.00 63 1020.6
20260507014523 66 107 1.0 9.0 0.00 0.00 0.00 64 1020.6
20260507013005 67 122 2.0 7.0 0.00 0.00 0.00 62 1020.6
20260507011505 67 119 2.0 8.0 0.00 0.00 0.00 62 1020.4
20260507010012 67 175 3.0 9.0 0.00 0.00 0.00 62 1020.4
20260507004518 68 135 3.0 7.0 0.00 0.00 0.00 61 1020.2
20260507003020 68 78 1.0 10.0 0.00 0.00 0.00 62 1020.3
20260507001504 69 122 3.0 9.0 0.00 0.00 0.00 60 1020.3
20260507000010 70 99 3.0 7.0 0.00 0.00 0.00 58 1020.2
20260506234515 71 49 1.0 6.0 0.00 0.00 0.00 58 1020.2
20260506233018 70 99 1.0 8.0 0.00 0.00 0.00 60 1020.2
20260506231528 71 89 1.0 5.0 0.00 0.00 0.00 58 1020.3
20260506230007 71 102 1.0 6.0 0.00 0.00 0.00 59 1020.4
20260506224512 71 99 3.0 9.0 0.00 0.00 0.00 57 1020.5
20260506223018 71 112 1.0 6.0 0.00 0.00 0.00 60 1020.7
20260506221522 70 130 3.0 8.0 0.00 0.00 0.00 58 1020.6
20260506220016 70 110 2.0 7.0 0.00 0.00 0.00 61 1020.6
20260506214512 71 67 2.0 9.0 0.00 0.00 0.00 61 1020.6
20260506213016 70 131 3.0 8.0 0.00 0.00 0.00 64 1020.7
20260506211521 70 92 2.0 7.0 0.00 0.00 0.00 66 1020.8
20260506210025 70 64 3.0 7.0 0.00 0.00 0.00 62 1021.0
20260506204511 70 176 2.0 8.0 0.00 0.00 0.00 63 1021.0
20260506203015 69 90 2.0 7.0 0.00 0.00 0.00 65 1020.8
20260506201519 68 157 2.0 9.0 0.00 0.00 0.00 67 1021.0
20260506200021 67 146 3.0 11.0 0.00 0.00 0.00 66 1021.2
20260506194524 67 30 2.0 8.0 0.00 0.00 0.00 69 1021.3
20260506193013 66 97 2.0 8.0 0.00 0.00 0.00 71 1021.4
20260506191517 65 117 2.0 7.0 0.00 0.00 0.00 71 1021.4
20260506190021 64 13 2.0 8.0 0.00 0.00 0.00 73 1021.4
20260506184522 63 93 3.0 10.0 0.00 0.00 0.00 73 1021.5
20260506183026 63 169 2.0 8.0 0.00 0.00 0.00 76 1021.4
20260506181514 63 42 2.0 7.0 0.00 0.00 0.00 74 1021.6
20260506180017 63 295 4.0 9.0 0.00 0.00 0.00 73 1021.8
20260506174521 62 158 2.0 8.0 0.00 0.00 0.00 76 1021.7
20260506173027 61 178 3.0 8.0 0.00 0.00 0.00 75 1021.5
20260506171512 61 46 2.0 6.0 0.00 0.00 0.00 77 1021.4
20260506170021 60 188 1.0 4.0 0.00 0.00 0.00 81 1021.6
20260506164524 57 143 0.0 3.0 0.00 0.00 0.00 84 1021.8
20260506163017 57 206 0.0 3.0 0.00 0.00 0.00 85 1021.8
20260506161511 56 132 1.0 4.0 0.00 0.00 0.00 84 1021.9
20260506160020 56 166 0.0 3.0 0.00 0.00 0.00 85 1021.7
20260506154522 56 180 1.0 3.0 0.00 0.00 0.00 85 1021.5
20260506153025 55 57 0.0 4.0 0.00 0.00 0.00 86 1021.0
20260506151508 54 109 1.0 3.0 0.00 0.00 0.00 88 1021.6
20260506150015 53 110 0.0 2.0 0.00 0.00 0.00 89 1021.7
20260506144523 53 128 0.0 2.0 0.00 0.00 0.00 90 1021.6
20260506143028 52 116 0.0 2.0 0.00 0.00 0.00 91 1021.5